Home   Weather   Emsdetten   Past weeks

Flag for Germany Past Weather in Emsdetten, North Rhine-Westphalia, Germany — Yesterday and Last 2 Weeks

Now
37 °F

Passing clouds.


Feels Like: 37 °F
Forecast: 33 / 52 °F
Wind: 1 mph from North

Location: Muenster / Osnabrueck

Current Time: Apr 28, 2017 at 12:54:18 am

Latest Report: Apr 28, 2017 at 12:20 am


Visibility: N/A

Pressure: 29.95 "Hg

Humidity: 81%

Dew Point: 32 °F

Location of EmsdettenLocation

Past Weather in Emsdetten — Graph

°F

Emsdetten Temperature Yesterday

Maximum temperature yesterday: 52 °F (at 3:20 pm)
Minimum temperature yesterday: 30 °F (at 5:50 am)
Average temperature yesterday: 42 °F

High & Low Weather Summary for the Past Weeks

 TemperatureHumidityPressure
High57 °F (Apr 24, 1:50 pm)100% (Apr 12, 11:50 pm)30.63 "Hg (Apr 12, 11:50 pm)
Low27 °F (Apr 20, 4:20 am)30% (Apr 20, 4:50 pm)29.65 "Hg (Apr 25, 3:20 am)
Average44 °F70%30.11 "Hg
* Reported Apr 12 11:20 pm — Apr 27 11:50 pm, Emsdetten, Weather by CustomWeather, © 2017

Note: Actual official high and low records may vary slightly from our data, if they occured in-between our weather recording intervals... More about our weather records

Advertising

Emsdetten Weather History for the Previous 24 Hours

Scroll right to see more
 ConditionsComfort  
Time TempWeatherWind HumidityBarometerVisibility
11:50 pm
Thu, Apr 27
39 °FPassing clouds.2 mph75%29.95 "HgN/A
11:20 pm39 °FPassing clouds.1 mph75%29.98 "HgN/A
10:50 pm39 °FPassing clouds.2 mph75%29.98 "HgN/A
10:20 pm43 °FPassing clouds.3 mph66%29.98 "HgN/A
9:50 pm46 °FPassing clouds.3 mph53%29.98 "HgN/A
9:20 pm46 °FPassing clouds.6 mph53%29.98 "HgN/A
8:50 pm46 °FPassing clouds.5 mph57%29.98 "HgN/A
8:20 pm48 °FPartly sunny.5 mph54%29.95 "HgN/A
7:50 pm48 °FPartly sunny.6 mph54%29.95 "HgN/A
7:20 pm48 °FPartly sunny.8 mph50%29.95 "HgN/A
6:50 pm50 °FPassing clouds.9 mph43%29.95 "HgN/A
6:20 pm50 °FBroken clouds.6 mph50%29.95 "HgN/A
5:50 pm48 °FBroken clouds.8 mph50%29.98 "HgN/A
5:20 pm48 °FBroken clouds.14 mph54%29.98 "HgN/A
4:50 pm50 °FPassing clouds.12 mph47%29.98 "HgN/A
4:20 pm50 °FPassing clouds.10 mph47%29.98 "HgN/A
3:50 pm52 °FPassing clouds.12 mph41%29.98 "HgN/A
3:20 pm52 °FSunny.7 mph32%29.98 "Hg10 mi
2:50 pm50 °FScattered clouds.5 mph40%29.98 "HgN/A
2:20 pm50 °FPassing clouds.9 mph40%29.98 "HgN/A
1:50 pm48 °FPartly sunny.10 mph46%29.98 "HgN/A
1:20 pm50 °FScattered clouds.9 mph43%29.98 "HgN/A
12:50 pm48 °FScattered clouds.7 mph43%29.98 "HgN/A
12:20 pm50 °FScattered clouds.8 mph37%30.01 "HgN/A
11:50 am46 °FScattered clouds.8 mph46%30.01 "HgN/A
11:20 am46 °FScattered clouds.8 mph50%30.01 "HgN/A
10:50 am46 °FScattered clouds.6 mph46%30.01 "HgN/A
10:20 am45 °FScattered clouds.8 mph49%30.01 "HgN/A
9:50 am45 °FPassing clouds.6 mph61%30.01 "HgN/A
9:20 am45 °FPassing clouds.3 mph66%30.01 "HgN/A
8:50 am41 °FPassing clouds.5 mph76%30.01 "HgN/A
8:20 am39 °FPassing clouds.3 mph81%30.01 "HgN/A
7:50 am36 °FSunny.3 mph87%29.98 "Hg10 mi
7:20 am34 °FFog.2 mph87%29.98 "HgN/A
6:50 am30 °FLight fog.2 mph93%29.98 "HgN/A
6:20 am30 °FChilly.2 mph93%29.98 "HgN/A
5:50 am30 °FLight fog.2 mph93%29.98 "HgN/A
5:20 am32 °FLight fog.2 mph93%29.98 "HgN/A
4:50 am32 °FClear.1 mph100%29.98 "Hg10 mi
4:20 am34 °FClear.2 mph87%29.95 "Hg10 mi
3:50 am34 °FClear.3 mph93%29.95 "Hg10 mi
3:20 am32 °FClear.2 mph93%29.95 "Hg10 mi
2:50 am32 °FFog.2 mph93%29.95 "HgN/A
2:20 am32 °FFog.1 mph93%29.95 "HgN/A
1:50 am32 °FFog.1 mph93%29.98 "HgN/A
1:20 am32 °FClear.1 mph93%29.98 "Hg10 mi
12:50 am32 °FClear.1 mph93%29.98 "Hg10 mi
12:20 am34 °FClear.1 mph93%29.95 "Hg10 mi
Weather by CustomWeather, © 2017

See weather overviewHow to use our weather pages